RYR1SR LEBL-LEMH

Flight info

Callsign RYR1SR
Flight time 0h 40m
Altitude 19000
Route DUNES Q700 SARGO
Aircraft B738/M-SDE3FGILRWY/SB1

Departure

Time 2026-04-16 14:35
Airport Josep Tarradellas Barcelona-El Prat Airport (LEBL)

Arrival

Time 2026-04-16 15:15
Airport Menorca Airport (LEMH)
Time Latitude Longitude Altitude Speed Heading
2026-04-16 13:59 41.30407 2.08314 21 ft 0 kts 276°
2026-04-16 14:00 41.30407 2.08310 20 ft 0 kts 275°
2026-04-16 14:28 41.30405 2.08334 21 ft 4 kts 282°
2026-04-16 14:28 41.30395 2.08365 21 ft 4 kts 309°
2026-04-16 14:28 41.30374 2.08386 24 ft 4 kts 335°
2026-04-16 14:29 41.30350 2.08401 20 ft 4 kts 336°
2026-04-16 14:29 41.30329 2.08413 21 ft 2 kts 335°
2026-04-16 14:29 41.30306 2.08421 22 ft 4 kts 15°
2026-04-16 14:29 41.30286 2.08404 21 ft 4 kts 59°
2026-04-16 14:30 41.30277 2.08379 18 ft 4 kts 65°
2026-04-16 14:30 41.30273 2.08368 18 ft 0 kts 65°
2026-04-16 14:32 41.30274 2.08371 18 ft 2 kts 65°
2026-04-16 14:32 41.30271 2.08450 18 ft 15 kts 131°
2026-04-16 14:32 41.30274 2.08564 18 ft 15 kts 65°
2026-04-16 14:33 41.30330 2.08729 19 ft 24 kts 66°
2026-04-16 14:33 41.30417 2.08958 17 ft 31 kts 42°
2026-04-16 14:33 41.30598 2.09050 17 ft 26 kts 19°
2026-04-16 14:33 41.30764 2.09127 20 ft 24 kts 19°
2026-04-16 14:34 41.30884 2.09255 20 ft 23 kts 64°
2026-04-16 14:34 41.30920 2.09432 21 ft 14 kts 131°
2026-04-16 14:34 41.30826 2.09418 21 ft 18 kts 199°
2026-04-16 14:34 41.30476 2.09258 19 ft 87 kts 199°
2026-04-16 14:35 41.29710 2.08907 23 ft 142 kts 199°
2026-04-16 14:35 41.28702 2.08454 385 ft 161 kts 199°
2026-04-16 14:35 41.27572 2.07920 756 ft 186 kts 201°
2026-04-16 14:35 41.26293 2.07298 1070 ft 205 kts 201°
2026-04-16 14:36 41.24958 2.06669 1723 ft 198 kts 202°
2026-04-16 14:36 41.23651 2.06068 2330 ft 200 kts 202°
2026-04-16 14:36 41.22322 2.05464 2891 ft 203 kts 203°
2026-04-16 14:36 41.20969 2.04844 3521 ft 208 kts 203°
2026-04-16 14:37 41.19578 2.04206 4140 ft 215 kts 202°
2026-04-16 14:37 41.18182 2.03465 4577 ft 228 kts 216°
2026-04-16 14:37 41.17208 2.01810 4971 ft 235 kts 254°
2026-04-16 14:37 41.17143 1.99665 5565 ft 236 kts 288°
2026-04-16 14:38 41.17899 1.97750 6304 ft 236 kts 309°
2026-04-16 14:38 41.18971 1.96093 7010 ft 239 kts 312°
2026-04-16 14:38 41.20065 1.94418 7716 ft 241 kts 311°
2026-04-16 14:38 41.21160 1.92718 8462 ft 244 kts 311°
2026-04-16 14:39 41.22261 1.90993 9220 ft 246 kts 311°
2026-04-16 14:39 41.23564 1.89477 9782 ft 259 kts 327°
2026-04-16 14:39 41.25169 1.88202 10184 ft 275 kts 329°
2026-04-16 14:39 41.26865 1.86875 10531 ft 295 kts 333°
2026-04-16 14:40 41.28918 1.86178 10755 ft 319 kts 359°
2026-04-16 14:40 41.31109 1.86811 11358 ft 330 kts 24°
2026-04-16 14:40 41.32888 1.88750 12106 ft 339 kts 52°
2026-04-16 14:40 41.33809 1.91648 12887 ft 348 kts 77°
2026-04-16 14:41 41.34063 1.94860 13757 ft 350 kts 83°
2026-04-16 14:41 41.34297 1.98106 14482 ft 354 kts 81°
2026-04-16 14:41 41.34585 2.01373 15282 ft 355 kts 80°
2026-04-16 14:41 41.34605 2.04653 16149 ft 359 kts 99°
2026-04-16 14:42 41.33772 2.07781 17082 ft 360 kts 115°
2026-04-16 14:42 41.32631 2.10728 17987 ft 359 kts 116°
2026-04-16 14:42 41.31449 2.13658 18749 ft 361 kts 117°
2026-04-16 14:42 41.30264 2.16583 19064 ft 357 kts 116°
2026-04-16 14:43 41.29084 2.19512 19179 ft 362 kts 116°
2026-04-16 14:43 41.27907 2.22460 19180 ft 359 kts 116°
2026-04-16 14:43 41.26746 2.25383 19185 ft 358 kts 116°
2026-04-16 14:43 41.25978 2.27323 19191 ft 357 kts 116°
2026-04-16 14:44 41.24825 2.30239 19201 ft 356 kts 116°
2026-04-16 14:44 41.23675 2.33151 19193 ft 356 kts 116°
2026-04-16 14:44 41.22525 2.36062 19192 ft 356 kts 116°
2026-04-16 14:44 41.21374 2.38973 19192 ft 356 kts 116°
2026-04-16 14:45 41.20220 2.41887 19190 ft 356 kts 116°
2026-04-16 14:45 41.19067 2.44797 19192 ft 357 kts 116°
2026-04-16 14:45 41.17910 2.47717 19191 ft 357 kts 116°
2026-04-16 14:45 41.16754 2.50629 19191 ft 357 kts 116°
2026-04-16 14:46 41.15591 2.53553 19191 ft 358 kts 116°
2026-04-16 14:46 41.14421 2.56468 19188 ft 358 kts 117°
2026-04-16 14:46 41.13155 2.59316 19188 ft 359 kts 120°
2026-04-16 14:46 41.11833 2.62121 19190 ft 359 kts 121°
2026-04-16 14:47 41.10496 2.64917 19187 ft 359 kts 121°
2026-04-16 14:47 41.09159 2.67716 19198 ft 359 kts 120°
2026-04-16 14:47 41.07825 2.70522 19194 ft 359 kts 120°
2026-04-16 14:47 41.06499 2.73323 19187 ft 359 kts 120°
2026-04-16 14:48 41.05175 2.76127 19185 ft 358 kts 120°
2026-04-16 14:48 41.03858 2.78920 19186 ft 358 kts 120°
2026-04-16 14:48 41.02543 2.81712 19187 ft 357 kts 120°
2026-04-16 14:48 41.01227 2.84502 19187 ft 357 kts 120°
2026-04-16 14:49 40.99913 2.87288 19187 ft 356 kts 120°
2026-04-16 14:49 40.98599 2.90071 19193 ft 356 kts 120°
2026-04-16 14:49 40.97288 2.92847 19193 ft 356 kts 120°
2026-04-16 14:49 40.95974 2.95625 19194 ft 356 kts 120°
2026-04-16 14:50 40.94660 2.98401 19193 ft 356 kts 120°
2026-04-16 14:50 40.93345 3.01178 19194 ft 356 kts 120°
2026-04-16 14:50 40.92028 3.03955 19194 ft 356 kts 120°
2026-04-16 14:50 40.90711 3.06730 19204 ft 356 kts 120°
2026-04-16 14:51 40.89394 3.09504 19197 ft 357 kts 120°
2026-04-16 14:51 40.88073 3.12283 19194 ft 357 kts 120°
2026-04-16 14:51 40.86752 3.15056 19197 ft 357 kts 120°
2026-04-16 14:51 40.85456 3.17853 19193 ft 356 kts 118°
2026-04-16 14:53 40.76933 3.37691 19188 ft 355 kts 117°
2026-04-16 14:53 40.75706 3.40522 19192 ft 355 kts 117°
2026-04-16 14:54 40.74480 3.43350 19189 ft 355 kts 117°
2026-04-16 14:54 40.73252 3.46175 19191 ft 355 kts 117°
2026-04-16 14:54 40.72021 3.49005 19190 ft 355 kts 118°
2026-04-16 14:54 40.70794 3.51825 19193 ft 355 kts 118°
2026-04-16 14:55 40.69561 3.54653 19188 ft 355 kts 118°
2026-04-16 14:55 40.68328 3.57479 19192 ft 356 kts 118°
2026-04-16 14:55 40.67096 3.60301 19192 ft 356 kts 118°
2026-04-16 14:55 40.65861 3.63126 19191 ft 356 kts 118°
2026-04-16 14:56 40.64628 3.65946 19191 ft 356 kts 118°
2026-04-16 14:56 40.63393 3.68766 19189 ft 356 kts 118°
2026-04-16 14:56 40.62162 3.71575 19180 ft 351 kts 118°
2026-04-16 14:56 40.60955 3.74325 19045 ft 345 kts 118°
2026-04-16 14:57 40.59762 3.77043 18855 ft 342 kts 118°
2026-04-16 14:57 40.58577 3.79739 18556 ft 340 kts 118°
2026-04-16 14:57 40.57396 3.82426 18226 ft 338 kts 118°
2026-04-16 14:57 40.56223 3.85092 17875 ft 336 kts 118°
2026-04-16 14:58 40.55057 3.87742 17551 ft 334 kts 118°
2026-04-16 14:58 40.52744 3.92987 16902 ft 330 kts 118°
2026-04-16 14:58 40.51595 3.95587 16589 ft 328 kts 118°
2026-04-16 14:59 40.50324 3.98060 16243 ft 329 kts 134°
2026-04-16 14:59 40.48451 3.99749 15978 ft 327 kts 158°
2026-04-16 14:59 40.46298 4.00643 15723 ft 324 kts 164°
2026-04-16 14:59 40.44123 4.01401 15445 ft 323 kts 165°
2026-04-16 15:00 40.41949 4.02137 15171 ft 323 kts 165°
2026-04-16 15:00 40.39775 4.02878 14896 ft 322 kts 165°
2026-04-16 15:00 40.37612 4.03623 14621 ft 321 kts 165°
2026-04-16 15:00 40.35453 4.04375 14353 ft 321 kts 164°
2026-04-16 15:01 40.33312 4.05125 14067 ft 315 kts 164°
2026-04-16 15:01 40.31219 4.05862 13771 ft 309 kts 164°
2026-04-16 15:01 40.29157 4.06589 13493 ft 305 kts 164°
2026-04-16 15:01 40.27092 4.07319 13241 ft 309 kts 164°
2026-04-16 15:02 40.25006 4.08056 12972 ft 312 kts 164°
2026-04-16 15:02 40.22906 4.08797 12695 ft 311 kts 165°
2026-04-16 15:02 40.20825 4.09531 12430 ft 309 kts 165°
2026-04-16 15:02 40.18761 4.10259 12166 ft 306 kts 165°
2026-04-16 15:03 40.16711 4.10982 11904 ft 304 kts 165°
2026-04-16 15:03 40.14671 4.11700 11647 ft 303 kts 165°
2026-04-16 15:03 40.12637 4.12416 11395 ft 302 kts 165°
2026-04-16 15:03 40.10613 4.13127 11140 ft 301 kts 165°
2026-04-16 15:04 40.08575 4.13361 10852 ft 299 kts 193°
2026-04-16 15:04 40.06748 4.12144 10618 ft 291 kts 227°
2026-04-16 15:04 40.05782 4.09941 10465 ft 280 kts 256°
2026-04-16 15:04 40.05130 4.07495 10323 ft 286 kts 246°
2026-04-16 15:05 40.04137 4.05300 10119 ft 282 kts 236°
2026-04-16 15:05 40.02897 4.03337 9855 ft 279 kts 229°
2026-04-16 15:05 40.01530 4.01549 9610 ft 278 kts 225°
2026-04-16 15:05 40.00088 3.99892 9359 ft 276 kts 221°
2026-04-16 15:06 39.98544 3.98382 9134 ft 279 kts 216°
2026-04-16 15:06 39.96883 3.97033 8891 ft 282 kts 211°
2026-04-16 15:06 39.95128 3.95883 8627 ft 282 kts 205°
2026-04-16 15:06 39.93298 3.94951 8390 ft 282 kts 200°
2026-04-16 15:07 39.91412 3.94242 8141 ft 283 kts 195°
2026-04-16 15:07 39.89483 3.93722 7901 ft 283 kts 191°
2026-04-16 15:07 39.87532 3.93382 7645 ft 283 kts 186°
2026-04-16 15:07 39.85567 3.93300 7399 ft 283 kts 180°
2026-04-16 15:08 39.83599 3.93501 7152 ft 283 kts 173°
2026-04-16 15:08 39.81664 3.93959 6906 ft 283 kts 167°
2026-04-16 15:08 39.79765 3.94645 6657 ft 283 kts 162°
2026-04-16 15:08 39.77921 3.95542 6395 ft 283 kts 157°
2026-04-16 15:09 39.76150 3.96641 6143 ft 282 kts 152°
2026-04-16 15:09 39.74459 3.97940 5804 ft 285 kts 147°
2026-04-16 15:09 39.72854 3.99445 5481 ft 281 kts 141°
2026-04-16 15:09 39.71398 4.01095 5215 ft 274 kts 135°
2026-04-16 15:10 39.70093 4.02868 4968 ft 270 kts 130°
2026-04-16 15:10 39.68918 4.04766 4728 ft 269 kts 125°
2026-04-16 15:10 39.67874 4.06777 4489 ft 268 kts 120°
2026-04-16 15:10 39.66970 4.08880 4256 ft 266 kts 114°
2026-04-16 15:11 39.66214 4.11055 4017 ft 263 kts 108°
2026-04-16 15:11 39.65960 4.13312 3761 ft 247 kts 75°
2026-04-16 15:11 39.66726 4.15153 3578 ft 225 kts 36°
2026-04-16 15:11 39.68122 4.15858 3399 ft 216 kts 359°
2026-04-16 15:12 39.69532 4.15304 3117 ft 210 kts 334°
2026-04-16 15:12 39.70896 4.14875 3013 ft 203 kts
2026-04-16 15:12 39.72288 4.15212 2911 ft 204 kts 11°
2026-04-16 15:12 39.73562 4.15979 2789 ft 203 kts 33°
2026-04-16 15:13 39.74687 4.17102 2620 ft 205 kts 36°
2026-04-16 15:13 39.75805 4.18245 2413 ft 206 kts 33°
2026-04-16 15:13 39.77029 4.19258 2045 ft 211 kts 25°
2026-04-16 15:13 39.78372 4.19977 1793 ft 207 kts 15°
2026-04-16 15:14 39.79728 4.20474 1440 ft 198 kts 11°
2026-04-16 15:14 39.81038 4.20822 1146 ft 187 kts
2026-04-16 15:14 39.82288 4.21046 849 ft 176 kts
2026-04-16 15:14 39.83427 4.21283 669 ft 156 kts
2026-04-16 15:15 39.84445 4.21493 416 ft 141 kts
2026-04-16 15:15 39.85394 4.21686 294 ft 135 kts
2026-04-16 15:15 39.86218 4.21855 301 ft 100 kts
2026-04-16 15:15 39.86709 4.21969 304 ft 28 kts 20°
2026-04-16 15:16 39.86857 4.22077 300 ft 24 kts 38°
2026-04-16 15:16 39.86932 4.22225 299 ft 14 kts 95°
2026-04-16 15:16 39.86916 4.22355 296 ft 15 kts 104°
2026-04-16 15:16 39.86821 4.22390 293 ft 17 kts 189°
2026-04-16 15:17 39.86708 4.22367 290 ft 16 kts 188°
2026-04-16 15:17 39.86599 4.22345 288 ft 16 kts 189°
2026-04-16 15:17 39.86493 4.22322 287 ft 15 kts 189°
2026-04-16 15:17 39.86397 4.22303 290 ft 7 kts 187°
2026-04-16 15:18 39.86377 4.22346 286 ft 7 kts 99°
2026-04-16 15:18 39.86372 4.22386 285 ft 0 kts 99°